Location: Unspecified
(0.0000°N, 0.0000°E)
Time: 05:57:53
(UTC+00:00)

Amsat-Oscar-6 - Pass Details

Date: 29 April 2019
Orbit: 1448 x 1455 km, 101.8° (Epoch: 19 May)

Event Time Altitude Azimuth Distance (km) Brightness Sun altitude
Rises 02:18:34 0° 36° (NE) 4,535 ? -52.3°
Reaches altitude 10° 02:21:41 10° 45° (NE) 3,560 ? -51.6°
Enters shadow 02:26:44 30° 79° (ENE) 2,365 ? -50.4°
